Voltar ao catálogo

STARLINK-5868

AtivoComunicaçõesVLEO
NORAD 56483·PAYLOAD·🇺🇸 United States

Lançado May 10, 2023 de Vandenberg Space Force Base

Loading…

Próximas Passagens (próximas 24 horas)

TLE

AtualizadoSource: CelesTrak SupGP

Época: Sep 15, 2026, 02:01 UTC

1 56483C 23064AM  26258.08451389  .00507300  00000+0  40554-1 0  2583
2 56483  70.0004   6.8632 0003156 270.7590 327.7755 14.99891071    15

Acompanhe STARLINK-5868 em tempo real com AllMySat

Download on the App Store